Weather in Vozdvizhenka

Russia / Primorsky Krai     43°53′32″N   131°56′50″E
temp.,
°C
wind,
m/s
gust,
m/s
humid.,
%
clouds,
%
prec.,
mm/h
press.,
hPa
HPBL,
m
8 may, sat
sat801:00+9sw4992100 0.4 990467
04:00+10w6127692 1.1 992647
07:00+9wsw48822 0.0 995308
10:00+13s4560100 0.0 995769
13:00+15s71250100 0.0 9951091
16:00+15s81255100 0.0 992713
19:00+12sse81367100 0.0 992936
22:00+10ssw71280100 0.6 9911007
9 may, sun
sun901:00+7ssw3790100 7.3 991368
04:00+7s6989100 7.4 992497
07:00+7ssw3590100 0.0 993384
10:00+7wsw4589100 1.2 994465
13:00+8wsw4588100 0.6 996854
16:00+10nnw347798 0.8 997889
19:00+10nw467924 0.2 1000677
22:00+8wnw3591100 1.0 1003223
10 may, mon
mon1001:00+8nnw4892100 0.4 1005443
04:00+9nnw41089100 0.5 1007560
07:00+8nnw3891100 0.7 1009429
10:00+10nnw577498 0.9 1010865
13:00+12nnw5768100 0.3 10111434
16:00+11wnw6775100 0.8 1011933
19:00+9nw4682100 0.2 1013535
22:00+8nw2591100 0.9 1015299
11 may, tue
tue1101:00+8nw3491100 0.6 1016131
04:00+8nnw239087 0.6 101680
07:00+8n1288100 0.0 101861
10:00+11ne12727 0.0 1019623
13:00+15sse115439 0.1 10181525
16:00+15sse11508 0.1 10171301
19:00+12s79730 0.0 1017467
22:00+7s71484100 0.0 1019477
12 may, wed
wed1201:00+7s7168894 0.0 1019584
04:00+7s71687100 0.0 1019660
07:00+7s81684100 0.0 1018733
10:00+10ssw101776100 0.0 1017913
13:00+11ssw101772100 0.0 10161125
16:00+10ssw91682100 0.5 1015925
19:00+9s91891100 1.4 1014725
22:00+9ssw71692100 1.8 1015657